Location: Albany
(35.0170°S, 117.8920°E)
Time: 20:51:49
(UTC+08:00)

A-11 Canister half - Pass Details

Date: 30 January 2021
Orbit: 1525 x 1684 km, 47.3° (Epoch: 03 March)

Event Time Altitude Azimuth Distance (km) Brightness Sun altitude
Rises 01:31:24 0° 294° (WNW) 4,933 - -34.7°
Reaches altitude 10° 01:34:37 10° 291° (WNW) 3,951 - -34.5°
Exits shadow 01:41:31 47° 271° (W) 2,130 9.4 -34.0°
Maximum altitude 01:44:45 67° 209° (SSW) 1,799 9.3 -33.7°
Drops below altitude 10° 01:54:48 10° 126° (SE) 3,905 11.8 -32.8°
Sets 01:57:58 0° 123° (ESE) 4,874 12.4 -32.5°
